When you browse on this site, cookies collect data to enhance your experience and personalize the content and advertising you see.
Visit our Privacy Policy to learn more. By continuing to use the site, you agree to this use of cookies and data.
  • In Slovakia
  • List of Countries
  • For 7 days
  • Water Temperature
  • Satellite Maps
  • Weather Map
  • Weather Widgets
  • user-avatar
    Login

    Hourly Weather Kalat

    Today, 16 July, Tuesday

    Time Temperature Precipitation Wind Pressure Humidity
    00:00 +8°C° 0 mm 2 mps 476 mmHg 61%
    01:00 +8°C° 0 mm 2 mps 476 mmHg 63%
    02:00 +7°C° 0 mm 2 mps 475 mmHg 66%
    03:00 +7°C° 0 mm 2 mps 475 mmHg 68%
    04:00 +6°C° 0 mm 2 mps 475 mmHg 70%
    05:00 +5°C° 0 mm 3 mps 475 mmHg 70%
    06:00 +7°C° 0 mm 3 mps 475 mmHg 66%
    07:00 +8°C° 0 mm 3 mps 476 mmHg 62%
    08:00 +8°C° 0 mm 3 mps 477 mmHg 59%
    09:00 +10°C° 0 mm 3 mps 478 mmHg 54%
    10:00 +11°C° 0 mm 3 mps 478 mmHg 49%
    11:00 +12°C° 0 mm 3 mps 479 mmHg 44%
    12:00 +13°C° 0 mm 3 mps 479 mmHg 41%
    13:00 +13°C° 0 mm 3 mps 480 mmHg 39%
    14:00 +14°C° 0 mm 3 mps 480 mmHg 36%
    15:00 +14°C° 0 mm 3 mps 480 mmHg 37%
    16:00 +14°C° 0 mm 4 mps 480 mmHg 38%
    17:00 +14°C° 0 mm 4 mps 480 mmHg 39%
    18:00 +13°C° 0 mm 4 mps 480 mmHg 42%
    19:00 +13°C° 0 mm 4 mps 480 mmHg 44%
    20:00 +12°C° 0 mm 3 mps 479 mmHg 47%
    21:00 +11°C° 0 mm 3 mps 479 mmHg 50%
    22:00 +10°C° 0 mm 3 mps 479 mmHg 53%
    23:00 +10°C° 0 mm 2 mps 479 mmHg 55%

    Tomorrow, 17 July, Wednesday

    Time Temperature Precipitation Wind Pressure Humidity
    00:00 +9°C° 0 mm 2 mps 478 mmHg 57%
    01:00 +8°C° 0 mm 2 mps 477 mmHg 59%
    02:00 +8°C° 0 mm 2 mps 477 mmHg 61%
    03:00 +7°C° 0 mm 2 mps 477 mmHg 63%
    04:00 +8°C° 0 mm 1 mps 476 mmHg 64%
    05:00 +7°C° 0 mm 1 mps 476 mmHg 66%
    06:00 +7°C° 0 mm 2 mps 477 mmHg 61%
    07:00 +8°C° 0 mm 2 mps 477 mmHg 56%
    08:00 +9°C° 0 mm 2 mps 478 mmHg 51%
    09:00 +12°C° 0 mm 2 mps 479 mmHg 46%
    10:00 +13°C° 0 mm 2 mps 480 mmHg 41%
    11:00 +14°C° 0 mm 2 mps 480 mmHg 37%
    12:00 +15°C° 0 mm 2 mps 481 mmHg 34%
    13:00 +16°C° 0 mm 2 mps 481 mmHg 31%
    14:00 +17°C° 0 mm 3 mps 482 mmHg 28%
    15:00 +17°C° 0 mm 3 mps 482 mmHg 30%
    16:00 +17°C° 0 mm 4 mps 481 mmHg 32%
    17:00 +17°C° 0 mm 4 mps 481 mmHg 34%
    18:00 +15°C° 0 mm 4 mps 481 mmHg 36%
    19:00 +14°C° 0 mm 4 mps 481 mmHg 39%
    20:00 +13°C° 0 mm 4 mps 480 mmHg 42%
    21:00 +12°C° 0 mm 3 mps 480 mmHg 44%
    22:00 +12°C° 0 mm 3 mps 480 mmHg 46%
    23:00 +12°C° 0 mm 2 mps 479 mmHg 48%

    Day after tomorrow, 18 July, Thursday

    Time Temperature Precipitation Wind Pressure Humidity
    00:00 +10°C° 0 mm 2 mps 479 mmHg 50%
    01:00 +10°C° 0 mm 2 mps 478 mmHg 51%
    02:00 +9°C° 0 mm 2 mps 478 mmHg 53%
    03:00 +8°C° 0 mm 2 mps 477 mmHg 54%
    04:00 +8°C° 0 mm 2 mps 477 mmHg 55%
    05:00 +7°C° 0 mm 2 mps 476 mmHg 57%
    06:00 +8°C° 0 mm 2 mps 477 mmHg 52%
    07:00 +9°C° 0 mm 2 mps 478 mmHg 47%
    08:00 +10°C° 0 mm 3 mps 478 mmHg 42%
    09:00 +12°C° 0 mm 3 mps 479 mmHg 37%
    10:00 +13°C° 0 mm 3 mps 480 mmHg 33%
    11:00 +14°C° 0 mm 3 mps 481 mmHg 28%
    12:00 +16°C° 0 mm 3 mps 481 mmHg 26%
    13:00 +17°C° 0 mm 3 mps 482 mmHg 24%
    14:00 +18°C° 0 mm 3 mps 482 mmHg 22%
    15:00 +18°C° 0 mm 4 mps 482 mmHg 22%
    16:00 +18°C° 0 mm 4 mps 482 mmHg 23%
    17:00 +18°C° 0 mm 4 mps 482 mmHg 23%
    18:00 +17°C° 0 mm 4 mps 482 mmHg 26%
    19:00 +15°C° 0 mm 4 mps 481 mmHg 29%
    20:00 +14°C° 0 mm 4 mps 481 mmHg 32%
    21:00 +13°C° 0 mm 3 mps 480 mmHg 35%
    22:00 +12°C° 0 mm 3 mps 480 mmHg 38%
    23:00 +12°C° 0 mm 2 mps 480 mmHg 41%

    19 July, Friday

    Time Temperature Precipitation Wind Pressure Humidity
    00:00 +12°C° 0 mm 2 mps 479 mmHg 44%
    01:00 +10°C° 0 mm 2 mps 478 mmHg 46%
    02:00 +9°C° 0 mm 2 mps 478 mmHg 48%
    03:00 +9°C° 0 mm 2 mps 477 mmHg 50%
    04:00 +8°C° 0 mm 2 mps 477 mmHg 51%
    05:00 +9°C° 0 mm 1 mps 477 mmHg 52%
    06:00 +9°C° 0 mm 2 mps 478 mmHg 48%
    07:00 +10°C° 0 mm 2 mps 479 mmHg 44%
    08:00 +12°C° 0 mm 2 mps 479 mmHg 39%
    09:00 +13°C° 0 mm 2 mps 480 mmHg 36%
    10:00 +15°C° 0 mm 2 mps 481 mmHg 33%
    11:00 +16°C° 0 mm 2 mps 482 mmHg 30%
    12:00 +17°C° 0 mm 2 mps 482 mmHg 28%
    13:00 +18°C° 0 mm 3 mps 483 mmHg 26%
    14:00 +19°C° 0 mm 3 mps 483 mmHg 23%
    15:00 +19°C° 0 mm 3 mps 483 mmHg 24%
    16:00 +19°C° 0 mm 4 mps 483 mmHg 24%
    17:00 +19°C° 0 mm 4 mps 483 mmHg 24%
    18:00 +18°C° 0 mm 4 mps 483 mmHg 27%
    19:00 +17°C° 0 mm 4 mps 482 mmHg 30%
    20:00 +16°C° 0 mm 3 mps 482 mmHg 33%
    21:00 +14°C° 0 mm 3 mps 481 mmHg 36%
    22:00 +13°C° 0 mm 3 mps 481 mmHg 39%
    23:00 +13°C° 0 mm 2 mps 481 mmHg 41%

    20 July, Saturday

    Time Temperature Precipitation Wind Pressure Humidity
    00:00 +13°C° 0 mm 2 mps 480 mmHg 44%
    01:00 +12°C° 0 mm 2 mps 480 mmHg 46%
    02:00 +10°C° 0 mm 2 mps 479 mmHg 48%
    03:00 +10°C° 0 mm 2 mps 479 mmHg 49%
    04:00 +9°C° 0 mm 2 mps 478 mmHg 50%
    05:00 +8°C° 0 mm 2 mps 478 mmHg 51%
    06:00 +10°C° 0 mm 2 mps 479 mmHg 46%
    07:00 +12°C° 0 mm 2 mps 479 mmHg 41%
    08:00 +13°C° 0 mm 2 mps 480 mmHg 36%
    09:00 +14°C° 0 mm 2 mps 481 mmHg 32%
    10:00 +14°C° 0 mm 3 mps 482 mmHg 29%
    11:00 +16°C° 0 mm 3 mps 483 mmHg 26%
    12:00 +17°C° 0 mm 3 mps 483 mmHg 25%
    13:00 +18°C° 0 mm 3 mps 483 mmHg 23%
    14:00 +19°C° 0 mm 3 mps 484 mmHg 21%
    15:00 +19°C° 0 mm 4 mps 484 mmHg 22%
    16:00 +19°C° 0 mm 4 mps 484 mmHg 23%
    17:00 +19°C° 0 mm 4 mps 483 mmHg 24%
    18:00 +18°C° 0 mm 4 mps 483 mmHg 27%
    19:00 +17°C° 0 mm 4 mps 482 mmHg 30%
    20:00 +15°C° 0 mm 4 mps 482 mmHg 33%
    21:00 +14°C° 0 mm 3 mps 481 mmHg 35%
    22:00 +13°C° 0 mm 3 mps 481 mmHg 38%
    23:00 +13°C° 0 mm 2 mps 480 mmHg 41%

    21 July, Sunday

    Time Temperature Precipitation Wind Pressure Humidity
    00:00 +13°C° 0 mm 2 mps 480 mmHg 42%
    01:00 +12°C° 0 mm 2 mps 479 mmHg 44%
    02:00 +10°C° 0 mm 2 mps 479 mmHg 46%
    03:00 +10°C° 0 mm 2 mps 478 mmHg 47%
    04:00 +9°C° 0 mm 2 mps 478 mmHg 49%
    05:00 +9°C° 0 mm 2 mps 477 mmHg 50%
    06:00 +10°C° 0 mm 2 mps 478 mmHg 46%
    07:00 +12°C° 0 mm 2 mps 479 mmHg 42%
    08:00 +13°C° 0 mm 2 mps 480 mmHg 38%
    09:00 +13°C° 0 mm 3 mps 480 mmHg 35%
    10:00 +14°C° 0 mm 3 mps 481 mmHg 32%
    11:00 +17°C° 0 mm 3 mps 482 mmHg 29%
    12:00 +17°C° 0 mm 3 mps 482 mmHg 27%
    13:00 +18°C° 0 mm 4 mps 482 mmHg 25%
    14:00 +19°C° 0 mm 4 mps 483 mmHg 23%
    15:00 +19°C° 0 mm 4 mps 483 mmHg 23%
    16:00 +19°C° 0 mm 4 mps 483 mmHg 24%
    17:00 +19°C° 0 mm 5 mps 482 mmHg 24%
    18:00 +18°C° 0 mm 4 mps 482 mmHg 26%
    19:00 +17°C° 0 mm 4 mps 481 mmHg 28%
    20:00 +14°C° 0 mm 4 mps 481 mmHg 31%
    21:00 +14°C° 0 mm 3 mps 480 mmHg 33%
    22:00 +13°C° 0 mm 3 mps 480 mmHg 35%
    23:00 +13°C° 0 mm 2 mps 479 mmHg 37%
    Show more